Location: �couen
(49.0206°N, 2.3831°E)
Time: 07:29:49
(UTC+00:00)

SME Rocket - Pass Details

Date: 16 October 2021
Orbit: 550 x 2651 km, 99.9° (Epoch: 02 December)

Event Time Altitude Azimuth Distance (km) Brightness Sun altitude
Rises 17:36:03 0° 12° (NNE) 2,741 6.2 -6.9°
Reaches altitude 10° 17:38:03 10° 8° (N) 1,872 5.4 -7.2°
Maximum altitude 17:41:48 54° 290° (WNW) 768 4.0 -7.9°
Drops below altitude 10° 17:46:28 10° 214° (SSW) 2,327 6.6 -8.6°
Sets 17:49:11 0° 210° (SSW) 3,495 7.4 -9.1°
